Location: Asheville, NC
(35.6000°N, 82.5500°W)
Time: 11:50:49

NUDT-PHONESAT - Pass Details

Date: 08 January 2018
Orbit: 494 x 512 km, 97.4° (Epoch: 19 March)

Event Time Altitude Azimuth Distance (km) Brightness Sun altitude
Rises 18:06:23 0° 168° (SSE) 2,605 ? -6.8°
Reaches altitude 10° 18:08:28 10° 168° (SSE) 1,726 ? -7.2°
Maximum altitude 18:12:11 88° 256° (WSW) 518 ? -7.9°
Drops below altitude 10° 18:15:57 10° 348° (NNW) 1,743 ? -8.6°
Sets 18:18:04 0° 349° (NNW) 2,634 ? -9.0°
